Wind_Speed
33 32 30 28 27 25 23 22 22 22 21 19 19 19 18 17 16 15 16 16 16 15 14 13 13 12 11 9 9 9 7 6 6 6 6 6 6 6 6 6 5 5
33 33 32 29 28 27 25 24 23 22 22 22 19 19 18 18 18 17 16 17 16 15 15 14 13 13 12 11 10 10 9 8 7 6 7 7 7 7 7 6 6 6
34 33 33 31 29 29 27 25 24 23 23 23 22 20 18 18 19 19 18 17 17 16 16 15 14 14 14 13 12 11 10 10 9 8 8 8 8 8 7 6 6 7
35 34 34 32 30 30 29 27 26 25 23 23 24 22 20 18 19 21 20 19 18 17 17 17 16 15 15 14 13 13 11 11 10 9 9 9 8 9 8 7 7 7
37 35 34 33 31 31 31 29 27 26 25 23 23 23 23 21 20 21 22 21 20 19 18 18 18 17 17 16 16 15 13 12 11 11 11 10 9 9 8 8 8 7
36 36 34 34 32 31 31 31 29 28 27 25 23 23 24 24 22 22 22 23 22 21 20 19 20 19 18 18 18 17 15 13 13 13 13 12 11 10 9 9 9 9
35 36 35 33 32 32 31 31 31 30 29 27 26 24 24 25 25 23 23 23 22 22 21 21 21 21 20 19 19 19 18 16 15 14 14 14 12 11 11 10 10 10
34 35 35 33 31 32 31 31 31 32 30 28 27 26 24 24 26 26 24 24 23 23 23 22 22 23 21 20 21 20 19 18 17 16 15 15 14 13 13 12 11 11
34 33 34 33 31 30 31 30 30 31 31 30 27 26 26 26 26 27 26 25 24 24 24 23 23 24 23 22 22 22 21 19 18 18 17 16 16 15 15 14 13 12
35 33 33 33 32 30 31 31 30 30 31 31 29 26 27 27 27 27 27 27 26 25 25 25 24 24 24 23 23 23 22 21 19 18 19 19 18 17 16 15 15 15
35 34 34 34 33 31 31 32 30 29 29 31 30 28 27 28 28 28 28 29 29 27 26 26 25 25 25 24 23 23 23 22 20 19 19 20 19 18 17 17 17 16
35 35 34 35 34 32 32 32 31 30 29 30 30 30 28 28 29 29 28 29 30 29 27 27 26 26 26 26 24 23 23 22 21 21 20 20 20 20 19 19 19 18
36 36 35 35 35 34 33 33 32 31 30 29 30 30 29 28 28 29 29 29 29 30 29 28 28 27 27 27 26 24 24 24 22 21 21 21 21 21 20 20 20 20
36 36 36 36 36 35 34 33 33 32 31 31 30 30 29 29 28 28 29 28 28 30 29 28 29 29 28 29 28 27 25 25 24 23 22 22 22 21 21 21 21 20
36 35 35 36 36 36 35 34 33 33 33 32 32 30 29 29 28 28 28 28 28 28 29 28 28 30 30 30 31 30 27 26 26 25 23 22 22 22 22 21 21 21
37 35 35 36 36 37 36 35 34 33 33 32 32 32 30 30 30 29 28 29 28 28 28 28 28 29 31 32 32 32 30 27 26 26 25 24 23 23 22 22 22 21
37 36 36 37 37 37 37 36 34 33 33 33 33 33 32 31 31 30 29 28 28 28 28 28 28 28 30 33 33 33 32 30 28 27 27 26 25 24 23 23 22 22
37 36 37 37 37 38 38 38 35 33 33 34 33 33 33 32 31 31 30 28 28 28 28 27 28 28 29 32 34 34 33 31 29 27 27 27 26 25 24 24 23 22
38 37 37 38 38 38 38 39 37 34 33 34 33 32 32 32 31 31 31 29 28 29 29 28 27 28 29 31 33 35 34 32 29 26 26 26 26 26 25 25 25 25
37 37 37 38 38 38 38 38 39 36 34 32 32 32 31 32 31 30 31 31 29 28 30 30 28 28 29 30 32 34 35 34 31 26 24 24 24 25 25 25 26 26
36 37 37 37 38 37 37 37 38 38 35 32 31 31 31 31 31 30 30 32 31 29 27 28 28 28 29 30 32 33 34 35 34 28 23 22 22 23 25 25 26 26
35 35 35 35 36 37 36 37 37 38 37 33 31 30 30 30 31 31 30 30 31 31 28 26 26 27 29 31 32 33 33 34 35 32 28 24 21 20 21 23 25 26
36 35 35 34 35 36 36 37 38 38 38 35 31 29 29 29 30 30 29 29 29 31 30 27 25 26 28 29 31 32 33 33 34 34 32 29 26 22 20 20 22 24
37 36 35 34 35 36 36 36 37 37 37 36 33 30 28 29 29 29 29 29 28 29 31 30 27 26 27 27 28 31 33 33 34 33 31 29 27 26 24 22 22 23
36 36 35 35 35 35 35 34 34 35 36 35 34 31 29 28 28 27 27 28 28 28 29 30 30 29 29 28 27 28 31 33 33 32 29 27 26 26 26 26 26 26
35 35 35 35 34 34 32 32 32 32 33 34 33 31 29 28 27 27 26 27 27 27 29 30 30 29 30 31 30 30 31 32 33 32 30 28 27 25 25 25 28 29
Wind_Direction
194 194 194 193 194 193 191 190 191 193 195 196 198 201 204 205 206 204 200 202 206 207 208 209 208 206 204 208 211 208 204 202 210 215 219 229 234 239 245 238 236 248
195 195 195 195 196 196 195 195 195 197 199 200 201 203 204 204 205 207 203 201 204 205 205 206 209 208 204 207 212 211 210 210 212 216 223 229 232 239 247 242 237 239
195 195 195 195 196 197 198 199 200 201 204 205 206 205 203 202 203 206 205 202 201 202 202 203 206 209 206 206 210 213 213 214 214 215 223 229 232 239 245 245 242 232
194 195 196 196 197 199 200 201 202 204 206 208 210 208 205 203 202 202 204 205 203 202 202 202 203 208 209 207 208 211 215 217 216 215 220 227 231 239 243 244 248 239
194 195 196 197 198 199 200 201 203 205 207 209 210 209 208 206 201 199 203 205 204 203 204 203 203 206 209 209 208 210 213 216 218 216 217 223 228 234 239 240 240 241
193 194 196 197 197 198 200 201 203 205 207 209 210 209 209 209 205 200 201 204 204 204 204 203 203 204 207 210 210 211 212 213 216 217 216 219 223 227 233 236 235 235
190 192 194 195 196 198 199 201 203 205 206 208 210 209 208 209 209 205 203 203 204 204 204 203 202 202 203 207 210 212 212 212 214 218 219 218 218 223 229 232 233 231
187 190 193 194 195 197 199 201 203 205 206 207 208 209 208 208 209 208 207 205 205 205 205 205 204 203 202 205 208 211 213 213 213 215 216 216 217 220 224 228 232 232
186 188 190 192 193 195 198 200 202 204 205 206 207 208 208 208 208 207 208 208 207 207 207 207 207 204 202 204 207 210 212 213 214 214 213 213 215 218 219 222 226 229
185 186 188 190 192 195 197 199 200 202 204 205 207 207 207 207 207 206 207 209 208 209 208 208 208 206 204 204 207 210 212 213 215 216 216 213 215 218 218 218 221 226
185 186 187 189 192 195 197 199 199 199 201 202 205 206 205 205 205 206 206 208 209 210 210 209 208 207 205 205 207 210 212 214 215 216 217 217 217 218 219 219 220 224
186 186 187 189 191 195 196 198 199 199 199 200 203 205 205 204 204 205 206 207 208 210 210 210 209 208 207 206 207 209 211 212 214 216 218 219 219 220 221 222 222 224
187 187 188 189 191 194 195 196 198 199 199 200 202 204 205 205 203 203 205 207 208 209 210 210 209 208 208 207 206 208 210 211 212 215 217 218 220 221 222 222 223 224
189 189 189 190 191 193 195 195 197 199 199 199 200 202 204 206 204 202 203 206 208 208 209 210 209 208 208 208 208 208 209 210 211 213 215 217 219 221 222 223 222 223
189 189 189 191 192 193 195 196 197 198 199 199 198 200 203 205 206 204 201 202 206 208 208 208 208 208 208 209 208 209 210 210 210 212 214 216 217 219 221 224 224 224
188 189 189 191 192 194 195 197 198 199 200 200 198 199 202 204 207 207 202 200 204 206 207 208 209 209 209 210 210 210 210 210 211 212 214 215 216 217 220 223 224 226
188 188 189 191 192 193 195 196 198 199 200 201 200 199 201 203 205 207 205 201 201 204 205 207 210 212 211 211 212 212 211 211 212 212 213 215 217 218 220 222 224 226
188 188 189 190 191 192 194 196 199 199 200 202 202 199 199 201 204 207 208 204 201 202 205 207 210 213 214 212 212 213 213 213 213 214 215 216 217 219 221 222 225 227
188 189 189 190 191 192 193 195 197 200 200 201 203 201 199 200 203 206 209 209 204 202 204 208 211 214 215 214 213 214 215 214 214 216 218 218 219 220 222 223 225 227
188 190 190 191 192 192 192 194 196 199 201 200 201 201 200 200 202 206 209 212 211 206 205 207 211 214 216 216 216 216 217 216 216 217 220 221 222 222 222 224 225 226
190 191 192 192 191 191 192 194 196 198 200 201 200 201 202 201 202 205 208 211 214 214 210 208 211 214 216 217 218 218 219 218 217 217 220 223 225 225 224 224 224 226
191 192 193 192 191 191 192 193 195 197 199 200 200 201 203 202 202 205 208 210 213 216 216 214 215 217 217 217 218 219 218 218 218 218 221 225 227 228 227 225 225 226
192 193 194 193 192 192 193 193 195 196 198 199 200 200 201 201 202 205 208 210 211 213 216 218 218 219 220 219 219 218 215 215 217 219 222 227 230 231 230 228 227 227
192 193 194 193 193 193 194 194 195 196 197 198 199 200 199 200 201 204 207 210 211 212 214 216 219 221 223 221 220 217 214 213 215 216 221 226 230 234 235 233 232 232
191 193 193 194 195 195 195 195 194 194 196 197 199 201 200 201 202 203 207 210 212 213 212 213 217 222 223 223 221 217 212 212 212 213 217 223 227 231 235 235 235 235
190 193 194 194 194 194 193 194 193 193 195 196 199 201 201 201 202 203 207 210 211 213 212 212 215 220 223 223 221 218 214 211 210 211 214 219 223 226 229 232 233 235
Height
807 809 812 814 817 819 821 823 825 827 829 830 832 834 835 837 839 840 842 843 844 846 848 849 850 851 852 852 853 854 854 855 856 857 857 858 859 859 860 860 860 860
804 806 809 812 814 817 819 821 823 824 826 828 830 831 833 835 837 838 840 841 842 844 846 847 848 849 850 851 852 852 853 854 855 856 857 857 858 858 859 859 860 860
801 803 806 809 811 814 816 819 820 822 824 826 828 829 831 833 835 836 838 839 841 842 844 845 847 848 849 850 851 851 852 853 854 855 856 856 856 857 858 858 859 859
797 800 803 806 808 811 814 816 818 820 822 823 825 827 829 830 832 834 836 837 839 840 842 843 845 846 847 848 849 850 851 852 852 853 854 855 855 856 857 857 858 858
794 796 799 802 805 808 811 813 815 817 819 821 822 824 826 828 829 831 833 835 836 838 840 841 843 844 845 846 847 848 849 850 851 852 853 854 854 855 855 856 856 857
790 793 796 799 801 805 807 809 812 814 816 818 820 822 823 825 827 828 830 832 834 836 837 839 840 842 843 844 845 846 847 848 849 850 851 852 853 854 854 855 855 856
786 789 792 795 798 801 804 806 809 811 813 815 817 819 821 823 824 826 827 829 831 833 835 836 837 839 841 842 843 844 845 846 847 848 849 850 851 852 852 853 854 854
781 785 788 792 794 797 800 802 805 807 810 812 814 816 818 820 821 823 825 827 828 830 832 834 835 836 838 840 841 842 843 844 845 846 847 848 849 850 851 852 852 853
778 781 784 788 791 794 796 799 801 804 806 808 811 813 815 816 818 820 822 824 826 828 829 831 833 834 836 837 838 840 841 842 843 844 845 846 847 848 849 850 850 851
773 777 780 784 786 789 792 795 797 800 802 805 807 810 811 813 815 817 819 821 823 825 826 828 830 831 833 835 836 837 838 840 841 842 843 844 845 846 847 848 849 849
768 772 775 778 782 785 787 790 793 796 798 801 804 806 807 810 812 814 816 818 820 822 824 825 827 829 830 832 834 835 836 838 839 840 841 842 843 844 845 846 847 847
764 767 770 773 776 780 783 786 789 792 794 797 799 802 804 806 808 810 812 814 816 818 820 822 824 826 827 829 831 832 834 835 837 838 839 840 841 842 843 844 845 845
759 762 765 768 772 775 778 782 785 788 790 793 795 798 800 802 804 807 809 811 813 815 817 819 821 823 825 826 828 829 831 832 834 835 836 837 838 839 841 842 842 843
754 757 761 764 768 771 774 777 780 783 786 788 791 794 796 799 800 803 805 808 810 811 814 816 817 819 821 823 825 826 828 829 830 832 833 834 836 837 838 839 840 841
750 754 757 761 764 767 770 773 776 779 782 784 787 790 792 795 797 799 802 804 807 808 811 813 814 816 817 819 821 823 824 826 827 829 830 831 833 834 835 836 837 838
746 750 753 757 760 763 767 770 773 776 778 781 783 785 788 791 793 796 798 800 803 805 808 810 811 812 813 815 817 819 821 823 824 825 827 829 830 831 832 834 835 836
742 746 749 752 756 759 763 766 769 772 775 777 780 782 785 787 789 792 794 796 799 802 804 806 807 808 810 811 814 815 818 820 821 822 824 825 827 828 829 831 832 833
738 742 745 748 751 755 759 762 766 769 771 774 776 778 781 783 786 788 790 792 795 797 800 802 803 805 806 808 810 813 815 817 818 820 821 822 824 825 827 828 829 830
735 738 741 744 747 750 754 758 762 765 767 770 772 775 778 780 783 785 787 789 791 793 796 798 800 802 803 805 807 809 812 814 816 817 818 820 821 822 824 825 826 827
732 734 737 740 743 747 750 754 757 760 763 767 769 772 774 777 780 782 784 786 788 789 792 794 796 798 800 802 804 806 809 811 813 815 816 817 818 819 821 822 823 824
729 731 734 736 740 743 747 750 754 757 760 763 766 769 771 773 776 779 781 783 785 787 789 790 792 794 796 799 801 803 805 808 810 813 814 815 816 817 818 819 820 821
726 728 731 734 737 740 743 746 750 753 756 760 762 765 768 770 773 776 778 780 783 785 786 787 789 791 793 795 797 799 802 805 808 810 811 812 813 814 815 816 816 817
722 725 728 731 734 736 739 742 745 749 753 756 759 762 765 767 770 772 775 777 779 781 783 785 786 788 790 791 793 796 799 802 804 806 808 809 810 811 812 813 814 814
718 721 724 728 730 732 735 738 741 745 749 753 756 759 761 764 766 769 772 774 776 778 780 782 784 785 787 789 791 793 796 798 801 803 805 806 807 808 809 810 811 811
714 718 721 724 726 729 732 735 739 743 746 750 753 755 758 761 764 766 769 771 773 775 777 779 781 782 784 786 788 791 793 795 798 800 801 802 803 805 806 806 807 808
712 715 718 720 723 727 730 734 737 741 744 747 750 753 755 758 760 763 765 767 770 772 773 775 778 779 781 783 785 787 789 792 794 796 797 799 800 801 802 802 803 804